Wind_Speed
7 5 5 4 4 5 5 5 6 6 6 7 8 9 10 11 11 10 11 12 12 12 13 13 12 13 13 13 14 14 14 14 16
4 4 4 3 3 2 2 3 4 5 6 7 8 9 9 10 11 11 12 12 12 12 12 11 11 11 12 12 12 13 14 14 15
4 3 2 2 2 3 3 4 5 5 6 7 8 9 9 11 12 12 13 13 14 14 14 14 13 13 12 13 14 13 13 14 15
5 4 3 3 4 4 4 5 6 7 9 10 10 10 11 12 13 13 13 14 15 15 15 16 16 15 14 12 14 15 15 15 16
6 5 5 5 5 6 7 7 8 9 10 10 11 11 12 14 14 16 16 16 16 17 17 18 18 17 17 18 19 18 18 17 16
7 7 7 7 8 8 8 9 10 10 11 12 12 13 15 16 17 17 18 18 18 18 19 20 19 19 20 20 22 24 24 23 23
10 9 9 9 10 10 10 10 11 12 13 13 14 15 16 17 18 17 20 21 22 22 22 21 21 22 23 24 23 24 24 26 28
13 12 12 12 12 11 12 12 12 13 14 15 16 17 18 19 21 19 22 23 22 23 21 19 20 21 22 23 22 24 25 26 27
15 16 15 16 15 14 14 14 14 14 15 16 17 18 20 21 23 21 22 22 20 22 20 20 20 21 22 22 22 23 25 25 26
18 18 18 17 16 15 15 16 16 16 17 17 18 20 22 23 23 23 21 20 20 20 21 21 21 22 23 24 24 24 25 26 27
20 21 20 18 18 17 16 16 18 18 18 18 20 21 22 22 21 23 19 20 20 20 21 22 23 24 25 26 27 27 27 28 29
21 23 20 18 19 18 17 16 17 19 19 20 21 21 21 20 20 21 21 19 20 21 22 23 24 26 27 29 30 30 31 32 32
23 22 21 18 18 17 17 17 17 19 21 22 21 20 20 20 21 21 21 22 22 23 25 25 27 28 30 32 33 34 35 35 36
28 23 19 17 17 16 16 16 17 20 21 21 21 21 22 22 23 23 24 24 26 27 27 29 30 31 33 35 36 36 37 38 38
29 23 21 16 16 16 17 16 18 20 20 21 23 23 24 24 25 26 26 27 28 30 31 32 34 35 35 37 38 39 39 39 39
24 21 20 21 20 18 17 16 18 19 21 22 24 25 24 26 26 27 29 29 31 32 34 35 37 39 40 41 40 40 41 41 41
23 24 23 20 24 19 17 17 18 19 21 24 25 27 29 25 27 28 29 31 34 35 36 37 39 41 42 42 42 42 42 43 45
28 27 24 27 23 18 17 17 19 20 22 24 27 30 31 31 31 31 31 33 34 35 36 38 39 41 42 42 42 43 44 46 49
29 26 25 25 20 18 18 18 19 22 24 26 28 31 33 35 35 35 37 38 38 39 38 37 36 38 40 42 44 46 47 50 53
29 27 25 25 20 19 19 19 21 24 27 29 32 35 37 38 39 38 37 39 41 43 44 43 43 43 45 48 51 53 55 58 60
Wind_Direction
293 288 282 265 254 247 250 256 260 266 270 273 276 276 278 281 284 284 282 283 282 282 281 282 284 284 283 282 280 278 275 273 274
299 284 270 264 266 278 283 283 293 298 297 298 294 293 291 288 287 286 287 282 281 281 281 281 282 279 281 282 282 282 281 279 277
354 341 321 307 304 303 310 311 310 311 309 305 304 302 301 296 292 294 293 296 291 285 281 277 276 278 287 291 291 290 289 288 287
351 3 5 354 343 341 333 324 320 319 313 306 305 304 301 298 299 297 297 292 291 289 288 289 283 278 273 269 272 280 286 291 292
343 342 333 326 324 321 320 321 320 317 308 306 306 304 299 297 296 293 294 291 290 289 290 284 285 282 272 266 263 265 259 260 262
325 326 322 316 313 313 312 317 316 308 305 305 304 303 299 298 296 297 292 292 289 289 285 286 284 281 276 271 268 266 266 265 264
308 312 315 315 311 308 308 310 306 304 305 303 302 301 299 296 293 296 292 291 291 289 287 288 284 281 280 278 275 273 271 268 267
300 300 304 306 305 304 302 303 302 304 304 304 304 300 295 293 290 293 292 291 292 292 294 291 289 286 283 284 282 278 275 272 269
296 296 299 299 301 300 300 299 301 301 300 300 298 296 295 294 293 294 290 290 291 291 293 292 290 288 286 285 283 281 280 278 276
291 292 292 290 290 293 292 295 297 297 297 298 299 300 298 295 294 293 290 291 292 294 295 293 292 292 291 289 287 284 282 281 280
287 287 287 285 286 284 286 289 291 294 296 300 302 301 298 295 294 294 292 295 296 296 295 295 295 294 292 291 290 288 286 284 282
284 283 281 278 278 278 279 283 290 294 299 301 301 300 297 295 295 295 297 296 297 296 295 295 294 294 293 292 291 289 288 286 284
279 276 279 275 273 273 276 282 290 297 302 304 305 303 299 299 298 298 298 299 297 295 297 296 295 295 295 294 293 291 290 288 286
281 277 275 274 273 271 276 284 295 301 305 309 310 308 304 303 302 301 299 298 297 296 295 295 296 295 295 294 292 290 288 287 285
276 275 277 276 279 272 276 285 296 304 310 314 313 311 309 306 303 300 298 297 296 296 296 296 296 295 294 292 291 290 288 287 287
270 266 272 272 280 276 276 286 297 306 312 315 314 312 310 308 303 299 298 297 296 296 296 296 295 295 295 294 293 291 290 290 289
253 268 252 269 275 269 274 287 297 307 313 315 315 315 313 308 302 301 299 299 297 297 297 297 296 296 295 294 292 291 291 290 289
258 264 259 265 266 263 274 287 298 306 312 317 318 318 316 312 308 304 302 298 297 296 296 296 296 295 293 292 291 290 289 287 287
256 255 269 263 262 261 273 286 298 306 312 315 317 318 316 312 310 309 307 304 303 299 298 297 294 292 291 291 291 290 290 289 289
249 254 245 265 253 259 272 285 297 305 310 314 317 317 315 312 310 307 305 304 305 304 303 302 300 298 298 299 298 298 297 296 296
Height
3137 3137 3137 3137 3138 3138 3138 3138 3138 3138 3139 3139 3139 3139 3139 3138 3138 3137 3137 3137 3136 3136 3135 3135 3134 3134 3134 3133 3134 3133 3134 3134 3134
3138 3137 3137 3137 3137 3137 3137 3137 3137 3138 3138 3137 3138 3138 3138 3137 3136 3136 3136 3136 3135 3134 3133 3133 3133 3132 3132 3131 3131 3132 3132 3132 3131
3138 3137 3137 3137 3137 3137 3137 3137 3137 3137 3137 3137 3137 3137 3136 3136 3135 3134 3133 3134 3133 3132 3132 3131 3130 3129 3130 3130 3130 3129 3130 3130 3130
3138 3138 3137 3137 3137 3137 3137 3137 3137 3137 3137 3136 3136 3135 3135 3134 3133 3132 3132 3131 3130 3130 3129 3129 3128 3128 3127 3127 3127 3127 3128 3128 3127
3138 3138 3137 3137 3137 3137 3137 3136 3136 3136 3136 3135 3135 3134 3133 3132 3131 3129 3129 3129 3128 3127 3126 3125 3125 3125 3125 3125 3124 3124 3124 3124 3123
3138 3138 3137 3137 3137 3137 3136 3136 3135 3135 3134 3134 3133 3132 3131 3129 3128 3127 3126 3126 3124 3124 3122 3122 3121 3121 3121 3120 3119 3120 3121 3121 3120
3138 3137 3136 3136 3136 3136 3136 3135 3134 3133 3132 3132 3131 3130 3128 3127 3125 3125 3123 3122 3121 3120 3118 3119 3118 3117 3116 3115 3115 3115 3115 3115 3115
3137 3136 3135 3135 3134 3134 3134 3133 3132 3131 3130 3129 3128 3127 3126 3124 3122 3122 3119 3118 3117 3115 3115 3115 3113 3112 3111 3110 3111 3110 3109 3108 3108
3134 3134 3134 3133 3133 3132 3132 3131 3129 3129 3128 3127 3126 3124 3123 3121 3119 3118 3115 3115 3113 3112 3111 3110 3109 3108 3107 3106 3106 3104 3104 3103 3102
3132 3131 3131 3131 3130 3130 3129 3128 3127 3126 3125 3124 3123 3121 3120 3118 3115 3113 3112 3111 3109 3108 3108 3106 3104 3104 3103 3102 3102 3100 3099 3098 3097
3129 3128 3128 3128 3128 3127 3126 3125 3124 3123 3122 3121 3119 3117 3115 3114 3111 3108 3109 3106 3105 3104 3104 3102 3100 3099 3098 3097 3096 3095 3093 3092 3091
3125 3125 3125 3125 3125 3124 3123 3122 3121 3120 3119 3117 3115 3113 3111 3109 3107 3105 3103 3102 3101 3100 3099 3097 3095 3094 3092 3091 3089 3088 3087 3085 3084
3122 3122 3121 3121 3121 3120 3120 3119 3117 3116 3115 3113 3111 3109 3107 3105 3103 3101 3099 3097 3096 3095 3093 3091 3089 3088 3086 3084 3082 3080 3079 3077 3075
3118 3117 3117 3117 3117 3117 3116 3115 3114 3113 3111 3109 3107 3105 3103 3101 3098 3097 3094 3093 3090 3089 3087 3085 3083 3081 3079 3076 3075 3072 3070 3068 3067
3113 3112 3112 3113 3113 3113 3112 3111 3110 3108 3106 3104 3102 3100 3098 3096 3094 3092 3090 3087 3085 3083 3080 3078 3075 3073 3071 3068 3066 3064 3061 3059 3057
3107 3107 3108 3109 3109 3109 3108 3107 3106 3105 3103 3101 3098 3096 3094 3091 3089 3087 3084 3081 3079 3076 3073 3070 3067 3064 3061 3058 3056 3054 3051 3048 3046
3102 3103 3104 3104 3104 3104 3104 3103 3102 3101 3099 3096 3094 3091 3088 3087 3084 3081 3077 3074 3072 3069 3065 3062 3058 3054 3051 3048 3046 3044 3041 3038 3035
3098 3098 3100 3099 3100 3100 3100 3099 3098 3096 3095 3092 3089 3084 3082 3080 3077 3074 3071 3068 3065 3062 3058 3055 3050 3046 3042 3039 3037 3034 3032 3028 3025
3093 3094 3094 3095 3095 3095 3095 3095 3094 3092 3090 3087 3084 3080 3076 3071 3070 3066 3061 3057 3055 3052 3050 3047 3043 3038 3034 3030 3027 3023 3020 3016 3012
3087 3088 3088 3090 3089 3090 3091 3090 3089 3087 3084 3082 3077 3074 3070 3065 3060 3058 3056 3050 3046 3041 3037 3034 3030 3026 3021 3016 3011 3007 3003 2998 2993